Overview Statistics Trail Chart Weather Telemetry Raw packets
 

This is the latest recevied weather packets stored in our database for station/object N2ZVN. If no packets are shown the sender has not sent any weather packets the latest 10 day(s).

<< 90 91 92 93 94 95 96 >>
Time Temp. Humidity Pressure Rain* Wind** Luminosity Snow
1788038415 25° C 50% 1021.1 hPa 0 mm - 64 W/m² -
1788038109 25° C 50% 1021.4 hPa 0 mm - 61 W/m² -
1788037809 25° C 50% 1021.3 hPa 0 mm - 73 W/m² -
1788037509 25° C 53% 1021.4 hPa 0 mm - 63 W/m² -
1788037204 25° C 51% 1021.5 hPa 0 mm - 49 W/m² -
1788036903 25° C 51% 1021.5 hPa 0 mm - 49 W/m² -
1788036601 25.56° C 52% 1021.8 hPa 0 mm - 46 W/m² -
1788036295 25.56° C 51% 1021.5 hPa 0 mm - 46 W/m² -
1788035991 25.56° C 48% 1021.6 hPa 0 mm - 49 W/m² -
1788035690 25.56° C 53% 1021.9 hPa 0 mm - 53 W/m² -
1788035386 25.56° C 51% 1021.8 hPa 0 mm - 55 W/m² -
1788035082 25.56° C 50% 1022.1 hPa 0 mm - 48 W/m² -
1788034777 25° C 49% 1021.7 hPa 0 mm - 62 W/m² -
1788034473 25° C 48% 1022 hPa 0 mm - 39 W/m² -
1788034170 25° C 50% 1021.8 hPa 0 mm - 43 W/m² -
1788033868 25° C 47% 1021.9 hPa 0 mm - 47 W/m² -
1788033567 25° C 47% 1022.1 hPa 0 mm - 52 W/m² -
1788033263 25° C 46% 1022.1 hPa 0 mm - 99 W/m² -
1788032959 25.56° C 48% 1022.2 hPa 0 mm - 55 W/m² -
1788032658 25.56° C 49% 1022.3 hPa 0 mm - 392 W/m² -
1788032353 25° C 51% 1022.3 hPa 0 mm - 111 W/m² -
1788032048 25° C 53% 1022.4 hPa 0 mm - 103 W/m² -
1788031744 25° C 50% 1022.4 hPa 0 mm - 46 W/m² -
1788031444 25° C 52% 1022.4 hPa 0 mm - 47 W/m² -
1788031138 24.44° C 52% 1022.5 hPa 0 mm - 47 W/m² -

* Rain latest hour (hover to see other rain measurements)
** Current wind speed in m/s (hover to see current wind gust speed)